カタログに戻る

TITAN 4B DEB

運用中LEO
NORAD 40528·DEBRIS·🇺🇸 United States

打ち上げ Aug 17, 2000 から Vandenberg Space Force Base

Loading…

次のパス (今後24時間)

TLE

最新Source: Space-Track

元期: Sep 14, 2026, 04:48 UTC

1 40528U 00047E   26257.20058112  .00000328  00000-0  39099-4 0  9998
2 40528  67.9956 333.5007 0060576 233.1718 155.5362 14.96040917625947

AllMySatでTITAN 4B DEBをリアルタイム追跡

Download on the App Store